When you browse on this site, cookies collect data to enhance your experience and personalize the content and advertising you see.
Visit our Privacy Policy to learn more. By continuing to use the site, you agree to this use of cookies and data.

Meteo pe oră la Dziedzice

Astăzi, 21 Septembrie, Luni

Timp Temperatura Precipitaţii Vânt Presiune Umiditate
00:00 +13°C° 0 mm 2 m/s 758 mmHg 63%
01:00 +13°C° 0 mm 2 m/s 757 mmHg 65%
02:00 +12°C° 0 mm 2 m/s 757 mmHg 67%
03:00 +12°C° 0 mm 2 m/s 757 mmHg 70%
04:00 +12°C° 0 mm 2 m/s 757 mmHg 72%
05:00 +12°C° 0 mm 2 m/s 757 mmHg 73%
06:00 +12°C° 0 mm 2 m/s 757 mmHg 74%
07:00 +13°C° 0 mm 2 m/s 757 mmHg 74%
08:00 +15°C° 0 mm 2 m/s 757 mmHg 68%
09:00 +17°C° 0 mm 2 m/s 757 mmHg 62%
10:00 +19°C° 0 mm 2 m/s 757 mmHg 55%
11:00 +20°C° 0 mm 2 m/s 757 mmHg 51%
12:00 +23°C° 0 mm 2 m/s 757 mmHg 47%
13:00 +24°C° 0 mm 2 m/s 757 mmHg 43%
14:00 +24°C° 0 mm 2 m/s 756 mmHg 43%
15:00 +24°C° 0 mm 2 m/s 756 mmHg 43%
16:00 +24°C° 0 mm 1 m/s 755 mmHg 43%
17:00 +23°C° 0 mm 1 m/s 755 mmHg 46%
18:00 +21°C° 0 mm 1 m/s 755 mmHg 50%
19:00 +19°C° 0 mm 1 m/s 755 mmHg 54%
20:00 +19°C° 0 mm 1 m/s 755 mmHg 55%
21:00 +17°C° 0 mm 2 m/s 755 mmHg 56%
22:00 +17°C° 0 mm 2 m/s 755 mmHg 58%
23:00 +17°C° 0 mm 2 m/s 755 mmHg 59%

Mâine, 22 Septembrie, Marţi

Timp Temperatura Precipitaţii Vânt Presiune Umiditate
00:00 +16°C° 0 mm 2 m/s 755 mmHg 61%
01:00 +16°C° 0 mm 2 m/s 755 mmHg 63%
02:00 +16°C° 0 mm 2 m/s 754 mmHg 64%
03:00 +15°C° 0 mm 2 m/s 754 mmHg 64%
04:00 +15°C° 0 mm 2 m/s 754 mmHg 65%
05:00 +15°C° 0 mm 2 m/s 754 mmHg 64%
06:00 +16°C° 0 mm 3 m/s 754 mmHg 64%
07:00 +16°C° 0 mm 3 m/s 754 mmHg 63%
08:00 +19°C° 0 mm 3 m/s 754 mmHg 57%
09:00 +21°C° 0 mm 4 m/s 753 mmHg 50%
10:00 +23°C° 0 mm 5 m/s 753 mmHg 44%
11:00 +25°C° 0 mm 5 m/s 753 mmHg 41%
12:00 +26°C° 0 mm 5 m/s 752 mmHg 38%
13:00 +28°C° 0 mm 6 m/s 752 mmHg 35%
14:00 +27°C° 0 mm 5 m/s 752 mmHg 38%
15:00 +27°C° 0 mm 4 m/s 751 mmHg 41%
16:00 +27°C° 0 mm 4 m/s 751 mmHg 43%
17:00 +25°C° 0 mm 4 m/s 751 mmHg 47%
18:00 +22°C° 0 mm 3 m/s 751 mmHg 51%
19:00 +21°C° 0 mm 3 m/s 750 mmHg 55%
20:00 +20°C° 0 mm 3 m/s 750 mmHg 57%
21:00 +19°C° 0 mm 3 m/s 750 mmHg 59%
22:00 +19°C° 0 mm 3 m/s 750 mmHg 60%
23:00 +18°C° 0 mm 3 m/s 750 mmHg 61%

Poimâine, 23 Septembrie, Miercuri

Timp Temperatura Precipitaţii Vânt Presiune Umiditate
00:00 +18°C° 0 mm 2 m/s 750 mmHg 61%
01:00 +18°C° 0 mm 2 m/s 750 mmHg 62%
02:00 +17°C° 0 mm 2 m/s 749 mmHg 62%
03:00 +17°C° 0 mm 2 m/s 749 mmHg 63%
04:00 +17°C° 0 mm 2 m/s 749 mmHg 63%
05:00 +17°C° 0 mm 2 m/s 749 mmHg 63%
06:00 +17°C° 0 mm 3 m/s 749 mmHg 63%
07:00 +17°C° 0 mm 3 m/s 749 mmHg 62%
08:00 +19°C° 0 mm 3 m/s 749 mmHg 57%
09:00 +21°C° 0 mm 3 m/s 748 mmHg 52%
10:00 +24°C° 0 mm 3 m/s 748 mmHg 47%
11:00 +25°C° 0 mm 3 m/s 748 mmHg 46%
12:00 +27°C° 0 mm 4 m/s 748 mmHg 45%
13:00 +28°C° 0 mm 4 m/s 748 mmHg 44%
14:00 +27°C° 0 mm 4 m/s 748 mmHg 46%
15:00 +27°C° 0 mm 3 m/s 747 mmHg 48%
16:00 +27°C° 0 mm 3 m/s 747 mmHg 50%
17:00 +25°C° 0 mm 2 m/s 747 mmHg 55%
18:00 +23°C° 0 mm 2 m/s 747 mmHg 60%
19:00 +22°C° 0 mm 1 m/s 747 mmHg 65%
20:00 +21°C° 0 mm 1 m/s 748 mmHg 68%
21:00 +20°C° 0 mm 2 m/s 748 mmHg 71%
22:00 +19°C° 0 mm 2 m/s 748 mmHg 74%
23:00 +19°C° 0 mm 2 m/s 748 mmHg 76%

24 Septembrie, Joi

Timp Temperatura Precipitaţii Vânt Presiune Umiditate
00:00 +19°C° 0 mm 2 m/s 748 mmHg 78%
01:00 +18°C° 0 mm 2 m/s 748 mmHg 81%
02:00 +18°C° 0 mm 2 m/s 748 mmHg 82%
03:00 +17°C° 0 mm 2 m/s 748 mmHg 84%
04:00 +17°C° 0 mm 2 m/s 748 mmHg 86%
05:00 +17°C° 0 mm 2 m/s 748 mmHg 84%
06:00 +18°C° 0 mm 2 m/s 748 mmHg 81%
07:00 +18°C° 0 mm 2 m/s 748 mmHg 79%
08:00 +19°C° 0 mm 3 m/s 748 mmHg 73%
09:00 +21°C° 0 mm 3 m/s 748 mmHg 66%
10:00 +22°C° 0 mm 3 m/s 749 mmHg 60%
11:00 +25°C° 0 mm 4 m/s 749 mmHg 56%
12:00 +26°C° 0 mm 4 m/s 749 mmHg 51%
13:00 +27°C° 0 mm 4 m/s 749 mmHg 47%
14:00 +27°C° 0 mm 4 m/s 749 mmHg 48%
15:00 +26°C° 0 mm 3 m/s 749 mmHg 50%
16:00 +26°C° 0 mm 3 m/s 749 mmHg 51%
17:00 +25°C° 0 mm 3 m/s 749 mmHg 55%
18:00 +23°C° 0 mm 2 m/s 749 mmHg 59%
19:00 +21°C° 0 mm 2 m/s 750 mmHg 63%
20:00 +20°C° 0 mm 2 m/s 750 mmHg 65%
21:00 +20°C° 0 mm 2 m/s 750 mmHg 67%
22:00 +19°C° 0 mm 2 m/s 750 mmHg 69%
23:00 +19°C° 0 mm 2 m/s 749 mmHg 70%

25 Septembrie, Vineri

Timp Temperatura Precipitaţii Vânt Presiune Umiditate
00:00 +19°C° 0 mm 2 m/s 749 mmHg 72%
01:00 +18°C° 0 mm 2 m/s 749 mmHg 73%
02:00 +18°C° 0 mm 3 m/s 748 mmHg 75%
03:00 +18°C° 0 mm 3 m/s 748 mmHg 78%
04:00 +17°C° 0 mm 3 m/s 747 mmHg 80%
05:00 +18°C° 0 mm 4 m/s 747 mmHg 80%
06:00 +18°C° 0 mm 4 m/s 746 mmHg 79%
07:00 +19°C° 0 mm 5 m/s 746 mmHg 79%
08:00 +21°C° 0 mm 5 m/s 746 mmHg 70%
09:00 +23°C° 0 mm 6 m/s 745 mmHg 62%
10:00 +24°C° 0 mm 6 m/s 745 mmHg 53%
11:00 +24°C° 0 mm 6 m/s 744 mmHg 55%
12:00 +25°C° 0 mm 5 m/s 744 mmHg 56%
13:00 +25°C° 0 mm 5 m/s 744 mmHg 58%
14:00 +23°C° 0 mm 4 m/s 743 mmHg 62%
15:00 +22°C° 0 mm 4 m/s 743 mmHg 67%
16:00 +21°C° 0 mm 3 m/s 743 mmHg 71%
17:00 +20°C° 1.1 mm 3 m/s 742 mmHg 77%
18:00 +19°C° 1.1 mm 2 m/s 742 mmHg 83%
19:00 +18°C° 1.1 mm 2 m/s 742 mmHg 89%
20:00 +17°C° 4.3 mm 3 m/s 742 mmHg 90%
21:00 +17°C° 4.3 mm 4 m/s 741 mmHg 91%
22:00 +15°C° 4.3 mm 6 m/s 741 mmHg 92%
23:00 +14°C° 0.6 mm 6 m/s 741 mmHg 90%

26 Septembrie, Sâmbătă

Timp Temperatura Precipitaţii Vânt Presiune Umiditate
00:00 +13°C° 0.6 mm 6 m/s 741 mmHg 89%
01:00 +11°C° 0.6 mm 7 m/s 741 mmHg 87%
02:00 +11°C° 0.1 mm 7 m/s 741 mmHg 87%
03:00 +11°C° 0.1 mm 7 m/s 740 mmHg 87%
04:00 +11°C° 0.1 mm 6 m/s 740 mmHg 86%
05:00 +11°C° 1 mm 6 m/s 741 mmHg 87%
06:00 +11°C° 1 mm 6 m/s 741 mmHg 89%
07:00 +11°C° 1 mm 6 m/s 741 mmHg 90%
08:00 +11°C° 0.2 mm 6 m/s 742 mmHg 89%
09:00 +11°C° 0.2 mm 6 m/s 742 mmHg 88%
10:00 +11°C° 0.2 mm 6 m/s 742 mmHg 86%
11:00 +11°C° 0.1 mm 6 m/s 743 mmHg 84%
12:00 +11°C° 0.1 mm 6 m/s 743 mmHg 82%
13:00 +11°C° 0.1 mm 6 m/s 744 mmHg 80%
14:00 +12°C° 0 mm 5 m/s 744 mmHg 79%
15:00 +12°C° 0 mm 5 m/s 744 mmHg 78%
16:00 +12°C° 0 mm 4 m/s 744 mmHg 77%
17:00 +12°C° 0 mm 4 m/s 744 mmHg 78%
18:00 +11°C° 0 mm 4 m/s 744 mmHg 79%
19:00 +11°C° 0 mm 4 m/s 744 mmHg 79%
20:00 +11°C° 0.2 mm 4 m/s 743 mmHg 82%
21:00 +11°C° 0.2 mm 4 m/s 743 mmHg 85%
22:00 +10°C° 0.2 mm 5 m/s 742 mmHg 87%
23:00 +10°C° 2.2 mm 5 m/s 741 mmHg 89%
Arată mai mult